Location: BGSU Observatory
(41.3799°N, 83.6397°W)
Time: 04:03:19
(UTC-04:00)

Amateur Radio Satellites - All Passes

Search period start: 26 April 2017 03:33
Search period end: 27 April 2017 03:33
Location: BGSU Observatory, 41.3799°N, 83.6397°W

Satellite Date Start Highest point End Downlink Frequencies (MHz)
Time Altitude Azimuth
BEESAT 26 Apr 03:34:18 03:39:02 75° 74° (ENE) 03:43:48 436.000
MOZHAYETS 4 26 Apr 03:36:02 03:40:09 35° 70° (ENE) 03:44:18
BUGSAT 1 26 Apr 03:36:52 03:38:57 14° 296° (WNW) 03:41:02 437.445
KKS-1 26 Apr 03:57:28 03:58:58 12° 61° (ENE) 04:00:29 437.445
ITAMSAT 1 26 Apr 04:12:33 04:16:56 27° 95° (E) 04:21:18 435.822/435.867
ITUPSAT 1 26 Apr 04:14:39 04:19:10 43° 261° (W) 04:23:43 437.325
Gurwin Techsat 1B 26 Apr 04:22:28 04:27:22 39° 292° (WNW) 04:32:15 435.225
CUBESAT XI-V 26 Apr 04:25:28 04:28:57 21° 65° (ENE) 04:32:26 437.345
Oscar 19 26 Apr 04:28:24 04:32:14 21° 297° (WNW) 04:36:03 437.125/150
STARS 26 Apr 04:31:39 04:33:04 11° 61° (ENE) 04:34:29 437.465
NO-84 26 Apr 04:49:06 04:51:15 19° 231° (SW) 04:53:22 435.350 FM
YUBILEINY 26 Apr 04:58:40 05:06:57 52° 89° (E) 05:15:16 435.215
PCSat 26 Apr 05:01:07 05:05:24 23° 314° (NW) 05:09:41 145.827
AO-7 26 Apr 05:02:31 05:10:45 61° 104° (ESE) 05:18:58 .
MOZHAYETS 4 26 Apr 05:13:49 05:17:23 22° 266° (W) 05:20:57
BEESAT 26 Apr 05:15:56 05:17:19 11° 271° (W) 05:18:43 436.000
KKS-1 26 Apr 05:30:25 05:34:54 76° 258° (WSW) 05:39:23 437.445
ITAMSAT 1 26 Apr 05:51:43 05:56:26 37° 292° (WNW) 06:01:08 435.822/435.867
CUBESAT XI-V 26 Apr 06:01:39 06:06:01 40° 262° (W) 06:10:26 437.345
STARS 26 Apr 06:04:22 06:08:47 75° 258° (WSW) 06:13:13 437.465
SO-50 26 Apr 06:12:08 06:13:17 11° 107° (ESE) 06:14:25 436.795
XW-2D 26 Apr 06:50:41 06:53:10 16° 93° (E) 06:55:38 145.860 - 145.880
CUTE-I 26 Apr 06:54:40 06:58:30 20° 93° (E) 07:02:18 437.470
AO-7 26 Apr 06:55:58 07:03:03 33° 303° (WNW) 07:10:08 .
YUBILEINY 26 Apr 06:56:17 07:04:00 35° 290° (WNW) 07:11:48 435.215
XW-2B 26 Apr 06:57:21 07:00:08 19° 94° (E) 07:02:53 145.730 - 145.750
LilacSat-2 26 Apr 07:07:05 07:10:22 26° 96° (E) 07:13:39 437.200
KAITUO 1B 26 Apr 07:08:33 07:11:26 20° 94° (E) 07:14:19 145.475/437.950
XW-2C 26 Apr 07:08:50 07:12:05 26° 96° (E) 07:15:21 145.795 - 145.815
RS-15 26 Apr 07:16:24 07:26:49 37° 105° (ESE) 07:37:28 29.354- 29.394
M-CUBED/EXP-1 PRIME 26 Apr 07:21:54 07:26:12 41° 66° (ENE) 07:30:36 437.505
DOVE 4 26 Apr 07:31:03 07:35:44 80° 103° (ESE) 07:40:06 437.250
XW-2F 26 Apr 07:34:31 07:38:14 53° 99° (E) 07:41:58 145.980 - 146.000
NUDT-PHONESAT 26 Apr 07:48:06 07:51:47 64° 100° (E) 07:55:30 437.300
SO-50 26 Apr 07:48:27 07:53:04 82° 303° (WNW) 07:57:40 436.795
STRAND 1 26 Apr 07:56:46 08:01:50 68° 73° (ENE) 08:06:54 437.568
XW-2A 26 Apr 08:09:31 08:11:30 15° 93° (E) 08:13:28 145.665 - 145.685
XW-2D 26 Apr 08:24:00 08:27:26 33° 289° (WNW) 08:30:54 145.860 - 145.880
Tancredo 1 26 Apr 08:29:16 08:31:23 17° 132° (SE) 08:33:29 437.200
XW-2B 26 Apr 08:31:01 08:34:20 29° 289° (WNW) 08:37:39 145.730 - 145.750
CUTE-I 26 Apr 08:33:41 08:38:50 52° 289° (WNW) 08:43:57 437.470
CUBEBUG 2 26 Apr 08:34:52 08:37:22 15° 92° (E) 08:39:51 437.445
LilacSat-2 26 Apr 08:41:34 08:44:30 21° 291° (WNW) 08:47:27 437.200
HO-68 26 Apr 08:42:00 08:48:54 47° 100° (E) 08:55:46 435.675
KAITUO 1B 26 Apr 08:42:15 08:45:25 26° 290° (WNW) 08:48:35 145.475/437.950
XW-2C 26 Apr 08:43:14 08:46:09 21° 291° (WNW) 08:49:03 145.795 - 145.815
ISS 26 Apr 08:45:24 08:47:51 20° 133° (SE) 08:50:18 437.550
M-CUBED/EXP-1 PRIME 26 Apr 08:57:08 09:00:43 22° 262° (W) 09:04:22 437.505
AAUSAT CUBESAT 2 26 Apr 09:06:40 09:10:05 24° 94° (E) 09:13:30 437.432
CUTE 1.7 + AOD 2 26 Apr 09:10:35 09:14:54 90° 71° (ENE) 09:19:12 437.475
XW-2F 26 Apr 09:10:37 09:11:55 11° 296° (WNW) 09:13:13 145.980 - 146.000
DOVE 4 26 Apr 09:11:22 09:12:38 11° 301° (WNW) 09:13:52 437.250
ZACube-1 26 Apr 09:19:39 09:22:27 17° 93° (E) 09:25:16 437.345
FO-29 26 Apr 09:25:11 09:28:09 14° 60° (ENE) 09:31:00 435.910
RS-15 26 Apr 09:26:24 09:38:28 70° 307° (NW) 09:50:53 29.354- 29.394
AO-73 26 Apr 09:26:45 09:29:43 18° 93° (E) 09:32:43 145.935
SEEDS 26 Apr 09:31:47 09:36:03 81° 284° (WNW) 09:40:19 437.485
SO-50 26 Apr 09:31:53 09:34:14 14° 322° (NW) 09:36:35 436.795
STRAND 1 26 Apr 09:38:52 09:41:28 14° 270° (W) 09:44:05 437.568
XW-2A 26 Apr 09:41:24 09:44:17 27° 289° (WNW) 09:47:11 145.665 - 145.685
Oscar 11 26 Apr 09:42:45 09:46:16 23° 94° (E) 09:49:45 .
UWE-3 26 Apr 09:58:00 10:02:13 82° 105° (ESE) 10:06:27 435.000/436.395/437.385
Tancredo 1 26 Apr 10:04:00 10:07:02 50° 329° (NNW) 10:10:04 437.200
PRISM 26 Apr 10:05:28 10:09:27 47° 72° (ENE) 10:13:28 437.425
TIGRISAT 26 Apr 10:07:39 10:11:23 28° 69° (ENE) 10:15:03 435.000
CUBEBUG 2 26 Apr 10:10:14 10:14:11 42° 288° (WNW) 10:18:10 437.445
ISS 26 Apr 10:20:57 10:24:06 47° 330° (NNW) 10:27:16 437.550
PCSat 26 Apr 10:23:55 10:24:34 10° 34° (NNE) 10:25:12 145.827
UNISAT 6 26 Apr 10:28:06 10:32:21 50° 73° (ENE) 10:36:32 437.425
HO-68 26 Apr 10:30:04 10:36:25 35° 298° (WNW) 10:42:46 435.675
O/OREOS (USA 219) 26 Apr 10:39:38 10:43:28 27° 103° (ESE) 10:47:20 437.305
AAUSAT CUBESAT 2 26 Apr 10:41:55 10:45:30 28° 291° (WNW) 10:49:05 437.432
OBJECT BX 26 Apr 10:45:15 10:48:12 22° 95° (E) 10:51:06 145.990 - 145.960
ZACube-1 26 Apr 10:54:56 10:58:53 40° 288° (WNW) 11:02:53 437.345
AO-73 26 Apr 11:02:11 11:06:04 37° 288° (WNW) 11:10:00 145.935
FO-29 26 Apr 11:06:13 11:12:38 89° 255° (WSW) 11:18:21 435.910
AIST 2D 26 Apr 11:14:52 11:17:09 17° 68° (ENE) 11:19:27 435.315
NANOSAT C BR1 26 Apr 11:18:23 11:20:00 12° 62° (ENE) 11:21:37 145.865
Oscar 11 26 Apr 11:18:34 11:22:23 31° 290° (WNW) 11:26:12 .
DELFI C3 26 Apr 11:30:05 11:34:05 72° 284° (WNW) 11:38:03 145.870
Tancredo 1 26 Apr 11:41:34 11:43:29 15° 348° (NNW) 11:45:26 437.200
PRISM 26 Apr 11:42:42 11:44:58 14° 268° (W) 11:47:15 437.425
RS-15 26 Apr 11:43:34 11:53:48 29° 336° (NNW) 12:04:07 29.354- 29.394
EO-79 26 Apr 11:43:48 11:47:13 24° 68° (ENE) 11:50:39 145.935-145.965
TIGRISAT 26 Apr 11:44:20 11:48:00 26° 264° (W) 11:51:38 435.000
DUCHIFAT 1 26 Apr 11:46:38 11:49:50 22° 67° (ENE) 11:53:03 145.980
LO-87 26 Apr 11:51:03 11:53:35 18° 94° (E) 11:56:05 145.935 - 145.965
ISS 26 Apr 11:59:05 12:01:11 16° 349° (N) 12:03:16 437.550
PCSat 26 Apr 12:04:04 12:09:20 48° 55° (NE) 12:14:34 145.827
UNISAT 6 26 Apr 12:06:55 12:09:19 14° 268° (W) 12:11:43 437.425
O/OREOS (USA 219) 26 Apr 12:18:41 12:22:46 31° 300° (WNW) 12:26:52 437.305
OBJECT BX 26 Apr 12:18:53 12:21:47 22° 291° (WNW) 12:24:41 145.990 - 145.960
POLYITAN 1 26 Apr 12:22:02 12:26:12 65° 75° (ENE) 12:30:23 437.675
QB50P2 26 Apr 12:28:33 12:32:47 85° 76° (ENE) 12:37:01 145.880/145.840
ESTCUBE 1 26 Apr 12:37:15 12:41:30 37° 97° (E) 12:45:43 437.505/2401.250
AIST 2D 26 Apr 12:47:10 12:50:09 27° 264° (W) 12:53:10 435.315
BUGSAT 1 26 Apr 12:49:37 12:53:22 34° 70° (ENE) 12:57:05 437.445
NANOSAT C BR1 26 Apr 12:51:00 12:55:11 64° 259° (W) 12:59:22 145.865
VELOX 1 26 Apr 12:53:34 12:56:10 15° 92° (E) 12:58:45 145.980
FO-29 26 Apr 12:55:58 12:58:14 12° 270° (W) 13:00:26 435.910
Tancredo 1 26 Apr 13:18:42 13:20:22 14° 8° (N) 13:22:03 437.200
EO-79 26 Apr 13:19:13 13:22:52 28° 264° (W) 13:26:31 145.935-145.965
DUCHIFAT 1 26 Apr 13:21:34 13:25:19 32° 263° (W) 13:29:05 145.980
LO-87 26 Apr 13:24:01 13:27:01 26° 290° (WNW) 13:30:00 145.935 - 145.965
AO-85 26 Apr 13:28:42 13:32:56 57° 119° (ESE) 13:36:56 145.980
ISS 26 Apr 13:36:39 13:38:38 15° 9° (N) 13:40:38 437.550
DX 1 26 Apr 13:46:09 13:49:28 21° 94° (E) 13:52:46 434.975-435.025
PCSat 26 Apr 13:48:07 13:52:24 24° 253° (WSW) 13:56:40 145.827
SPROUT 26 Apr 13:57:50 14:02:05 75° 102° (ESE) 14:06:19 437.525
50 SAT 26 Apr 14:00:14 14:03:37 46° 100° (E) 14:06:58 437.505
POLYITAN 1 26 Apr 14:01:46 14:02:23 10° 270° (W) 14:03:01 437.675
RS-15 26 Apr 14:02:24 14:11:58 25° 12° (NNE) 14:21:22 29.354- 29.394
Gurwin Techsat 1B 26 Apr 14:03:49 14:08:48 43° 70° (ENE) 14:13:49 435.225
Oscar 19 26 Apr 14:04:58 14:10:06 74° 74° (ENE) 14:15:17 437.125/150
AO-7 26 Apr 14:12:38 14:18:01 19° 49° (NE) 14:23:24 .
BEESAT 3 26 Apr 14:14:33 14:17:59 29° 114° (ESE) 14:21:28 437.485
ESTCUBE 1 26 Apr 14:14:36 14:18:03 22° 294° (WNW) 14:21:30 437.505/2401.250
BEESAT 2 26 Apr 14:15:21 14:16:21 11° 108° (ESE) 14:17:21 435.950
BUGSAT 1 26 Apr 14:25:47 14:28:47 19° 266° (W) 14:31:48 437.445
VELOX 1 26 Apr 14:28:36 14:32:53 49° 288° (WNW) 14:37:07 145.980
SO-50 26 Apr 14:40:40 14:43:05 14° 38° (NE) 14:45:28 436.795
UKube-1 26 Apr 14:49:08 14:53:28 73° 102° (ESE) 14:57:46 .
Tancredo 1 26 Apr 14:54:05 14:56:58 34° 27° (NNE) 14:59:50 437.200
YUBILEINY 26 Apr 15:09:00 15:16:00 26° 66° (ENE) 15:22:58 435.215
AO-85 26 Apr 15:10:53 15:13:36 17° 316° (NW) 15:16:17 145.980
ISS 26 Apr 15:12:41 15:15:46 40° 29° (NNE) 15:18:52 437.550
DX 1 26 Apr 15:21:46 15:25:43 34° 291° (WNW) 15:29:39 434.975-435.025
ITAMSAT 1 26 Apr 15:30:22 15:35:15 43° 69° (ENE) 15:40:07 435.822/435.867
BEESAT 26 Apr 15:35:13 15:38:33 19° 93° (E) 15:41:52 436.000
50 SAT 26 Apr 15:35:16 15:36:07 11° 296° (WNW) 15:36:58 437.505
SPROUT 26 Apr 15:36:34 15:37:22 10° 299° (WNW) 15:38:09 437.525
Gurwin Techsat 1B 26 Apr 15:44:39 15:48:54 24° 266° (W) 15:53:10 435.225
Oscar 19 26 Apr 15:47:38 15:49:57 13° 271° (W) 15:52:18 437.125/150
BEESAT 2 26 Apr 15:49:35 15:53:31 65° 304° (WNW) 15:57:32 435.950
BEESAT 3 26 Apr 15:52:12 15:55:33 26° 312° (NW) 15:58:58 437.485
AO-7 26 Apr 16:01:17 16:09:33 81° 69° (ENE) 16:17:52 .
ITUPSAT 1 26 Apr 16:14:41 16:19:17 45° 100° (E) 16:23:52 437.325
RS-15 26 Apr 16:16:34 16:28:29 51° 44° (NE) 16:39:51 29.354- 29.394
SO-50 26 Apr 16:19:41 16:24:13 88° 61° (ENE) 16:28:43 436.795
UKube-1 26 Apr 16:27:33 16:28:52 11° 299° (WNW) 16:30:12 .
Tancredo 1 26 Apr 16:30:08 16:32:48 27° 225° (SW) 16:35:29 437.200
ISS 26 Apr 16:49:25 16:52:07 24° 225° (SW) 16:54:48 437.550
DOVE 4 26 Apr 17:02:03 17:03:31 11° 59° (ENE) 17:04:59 437.250
YUBILEINY 26 Apr 17:04:52 17:13:35 71° 266° (W) 17:22:18 435.215
MOZHAYETS 4 26 Apr 17:07:15 17:11:53 83° 101° (E) 17:16:31
ITAMSAT 1 26 Apr 17:10:46 17:14:51 23° 266° (W) 17:18:58 435.822/435.867
BEESAT 26 Apr 17:11:59 17:16:32 46° 289° (WNW) 17:21:04 436.000
KKS-1 26 Apr 17:22:03 17:25:18 20° 94° (E) 17:28:33 437.445
LilacSat-2 26 Apr 17:50:14 17:52:13 14° 66° (ENE) 17:54:14 437.200
KAITUO 1B 26 Apr 17:51:04 17:51:37 10° 64° (ENE) 17:52:10 145.475/437.950
XW-2C 26 Apr 17:51:27 17:53:22 14° 66° (ENE) 17:55:19 145.795 - 145.815
ITUPSAT 1 26 Apr 17:53:20 17:56:46 20° 296° (WNW) 18:00:13 437.325
STARS 26 Apr 17:54:27 17:57:34 19° 94° (E) 18:00:39 437.465
AO-7 26 Apr 17:57:14 18:03:08 21° 268° (W) 18:09:05 .
CUBESAT XI-V 26 Apr 17:57:41 18:02:15 48° 99° (E) 18:06:48 437.345
XW-2F 26 Apr 18:15:46 18:18:50 25° 70° (ENE) 18:21:56 145.980 - 146.000
CUTE-I 26 Apr 18:16:12 18:20:57 34° 67° (ENE) 18:25:42 437.470
NUDT-PHONESAT 26 Apr 18:27:40 18:30:48 28° 71° (ENE) 18:33:58 437.300
RS-15 26 Apr 18:29:30 18:41:11 56° 248° (WSW) 18:52:19 29.354- 29.394
DOVE 4 26 Apr 18:35:03 18:40:21 80° 76° (ENE) 18:45:35 437.250
MOZHAYETS 4 26 Apr 18:47:05 18:48:21 11° 299° (WNW) 18:49:38
KKS-1 26 Apr 18:57:52 19:01:59 38° 290° (WNW) 19:06:03 437.445
XW-2D 26 Apr 19:04:35 19:08:19 72° 259° (WSW) 19:12:04 145.860 - 145.880
YUBILEINY 26 Apr 19:05:25 19:08:40 13° 287° (WNW) 19:11:56 435.215
HO-68 26 Apr 19:10:55 19:17:15 36° 63° (ENE) 19:23:36 435.675
XW-2B 26 Apr 19:11:34 19:15:15 60° 260° (W) 19:18:59 145.730 - 145.750
KAITUO 1B 26 Apr 19:21:30 19:25:08 56° 260° (W) 19:28:47 145.475/437.950
LilacSat-2 26 Apr 19:22:36 19:26:09 40° 262° (W) 19:29:44 437.200
XW-2C 26 Apr 19:23:40 19:27:12 41° 261° (W) 19:30:47 145.795 - 145.815
STARS 26 Apr 19:29:59 19:34:02 38° 290° (WNW) 19:38:04 437.465
CUBEBUG 2 26 Apr 19:33:37 19:35:56 14° 65° (ENE) 19:38:13 437.445
CUBESAT XI-V 26 Apr 19:36:01 19:39:14 19° 296° (WNW) 19:42:28 437.345
XW-2F 26 Apr 19:50:05 19:52:56 21° 266° (W) 19:55:49 145.980 - 146.000
CUTE-I 26 Apr 19:56:15 20:00:57 31° 264° (W) 20:05:42 437.470
AAUSAT CUBESAT 2 26 Apr 19:57:25 20:00:06 17° 66° (ENE) 20:02:47 437.432
NUDT-PHONESAT 26 Apr 20:02:10 20:04:44 18° 266° (W) 20:07:19 437.300
CUTE 1.7 + AOD 2 26 Apr 20:02:51 20:07:00 61° 75° (ENE) 20:11:12 437.475
NO-84 26 Apr 20:05:21 20:08:51 38° 133° (SE) 20:12:06 435.350 FM
STRAND 1 26 Apr 20:07:50 20:11:50 23° 94° (E) 20:15:49 437.568
XW-2A 26 Apr 20:11:59 20:15:20 88° 78° (ENE) 20:18:42 145.665 - 145.685
DOVE 4 26 Apr 20:16:14 20:18:31 13° 271° (W) 20:20:50 437.250
ZACube-1 26 Apr 20:16:26 20:18:36 14° 64° (ENE) 20:20:45 437.345
SEEDS 26 Apr 20:23:00 20:27:08 67° 75° (ENE) 20:31:20 437.485
AO-73 26 Apr 20:23:08 20:25:29 15° 65° (ENE) 20:27:49 145.935
M-CUBED/EXP-1 PRIME 26 Apr 20:35:35 20:39:05 25° 99° (E) 20:42:19 437.505
Oscar 11 26 Apr 20:38:01 20:41:01 19° 66° (ENE) 20:44:03 .
O/OREOS (USA 219) 26 Apr 20:48:49 20:53:19 52° 64° (ENE) 20:57:45 437.305
UWE-3 26 Apr 20:54:43 20:58:57 64° 75° (ENE) 21:03:06 435.000/436.395/437.385
HO-68 26 Apr 20:57:59 21:04:46 46° 261° (W) 21:11:38 435.675
CUBEBUG 2 26 Apr 21:07:51 21:12:08 53° 260° (W) 21:16:19 437.445
OBJECT BX 26 Apr 21:25:11 21:26:06 11° 64° (ENE) 21:27:00 145.990 - 145.960
AAUSAT CUBESAT 2 26 Apr 21:31:18 21:35:12 41° 262° (W) 21:39:11 437.432
CUTE 1.7 + AOD 2 26 Apr 21:42:03 21:43:15 11° 271° (W) 21:44:26 437.475
NO-84 26 Apr 21:43:23 21:46:28 26° 328° (NNW) 21:49:19 435.350 FM
STRAND 1 26 Apr 21:46:22 21:51:09 42° 290° (WNW) 21:55:57 437.568
ZACube-1 26 Apr 21:50:22 21:54:28 51° 260° (W) 21:58:31 437.345
AO-73 26 Apr 21:57:18 22:01:20 47° 261° (W) 22:05:21 145.935
AO-85 26 Apr 21:59:33 22:03:23 46° 53° (NE) 22:07:22 145.980
M-CUBED/EXP-1 PRIME 26 Apr 22:09:56 22:13:26 26° 298° (WNW) 22:16:45 437.505
Oscar 11 26 Apr 22:12:50 22:16:52 39° 262° (W) 22:20:55 .
DELFI C3 26 Apr 22:15:01 22:18:56 62° 75° (ENE) 22:22:54 145.870
O/OREOS (USA 219) 26 Apr 22:29:36 22:32:14 15° 261° (W) 22:34:50 437.305
BEESAT 3 26 Apr 22:31:11 22:34:17 21° 46° (NE) 22:37:22 437.485
BEESAT 2 26 Apr 22:31:49 22:32:39 10° 37° (NE) 22:33:29 435.950
UWE-3 26 Apr 22:35:01 22:35:48 10° 270° (W) 22:36:34 435.000/436.395/437.385
OBJECT BX 26 Apr 22:55:46 22:59:19 51° 260° (W) 23:02:53 145.990 - 145.960
PRISM 26 Apr 23:21:36 23:25:46 77° 103° (ESE) 23:29:53 437.425
TIGRISAT 26 Apr 23:34:33 23:38:47 60° 101° (E) 23:43:04 435.000
ESTCUBE 1 26 Apr 23:36:42 23:40:45 35° 70° (ENE) 23:44:52 437.505/2401.250
AO-85 26 Apr 23:40:59 23:43:26 16° 249° (WSW) 23:45:57 145.980
VELOX 1 26 Apr 23:51:12 23:53:44 15° 63° (ENE) 23:56:16 145.980
UNISAT 6 26 Apr 23:55:49 00:00:06 72° 284° (WNW) 00:04:25 437.425
LO-87 26 Apr 23:59:10 00:02:46 68° 259° (W) 00:06:24 145.935 - 145.965
FO-29 26 Apr 23:59:42 00:04:56 78° 103° (ESE) 00:10:29 435.910
BEESAT 2 27 Apr 00:07:05 00:11:09 72° 57° (ENE) 00:15:11 435.950
BEESAT 3 27 Apr 00:08:15 00:12:02 40° 243° (WSW) 00:15:46 437.485
POLYITAN 1 27 Apr 00:09:47 00:10:14 10° 90° (E) 00:10:41 437.675
AIST 2D 27 Apr 00:12:10 00:14:48 20° 94° (E) 00:17:27 435.315
QB50P2 27 Apr 00:14:54 00:16:58 13° 91° (E) 00:19:03 145.880/145.840
50 SAT 27 Apr 00:33:40 00:36:07 18° 68° (ENE) 00:38:36 437.505
NANOSAT C BR1 27 Apr 00:35:53 00:38:56 19° 94° (E) 00:41:57 145.865
DX 1 27 Apr 00:41:54 00:45:03 20° 65° (ENE) 00:48:13 434.975-435.025
SPROUT 27 Apr 00:50:49 00:54:59 55° 73° (ENE) 00:59:11 437.525
EO-79 27 Apr 01:03:02 01:07:03 43° 99° (E) 01:11:02 145.935-145.965
DUCHIFAT 1 27 Apr 01:04:58 01:08:50 36° 98° (E) 01:12:41 145.980
TIGRISAT 27 Apr 01:13:04 01:14:59 13° 297° (WNW) 01:16:55 435.000
ESTCUBE 1 27 Apr 01:14:07 01:17:38 22° 266° (W) 01:21:11 437.505/2401.250
VELOX 1 27 Apr 01:25:20 01:29:42 56° 259° (W) 01:34:07 145.980
POLYITAN 1 27 Apr 01:42:16 01:46:26 66° 285° (WNW) 01:50:35 437.675
UKube-1 27 Apr 01:43:13 01:47:29 61° 73° (ENE) 01:51:46 .
AIST 2D 27 Apr 01:45:07 01:47:58 23° 290° (WNW) 01:50:48 435.315
FO-29 27 Apr 01:47:00 01:49:27 13° 300° (WNW) 01:51:57 435.910
BEESAT 2 27 Apr 01:48:13 01:48:17 10° 253° (WSW) 01:48:23 435.950
QB50P2 27 Apr 01:48:58 01:53:03 50° 287° (WNW) 01:57:07 145.880/145.840
50 SAT 27 Apr 02:05:57 02:08:53 25° 264° (W) 02:11:50 437.505
BUGSAT 1 27 Apr 02:05:57 02:09:55 56° 100° (E) 02:13:51 437.445
NANOSAT C BR1 27 Apr 02:10:55 02:14:43 34° 290° (WNW) 02:18:30 145.865
DX 1 27 Apr 02:16:51 02:20:57 39° 261° (W) 02:25:06 434.975-435.025
Oscar 19 27 Apr 02:16:59 02:21:19 26° 95° (E) 02:25:35 437.125/150
Gurwin Techsat 1B 27 Apr 02:21:00 02:24:19 17° 91° (E) 02:27:37 435.225
SPROUT 27 Apr 02:29:21 02:31:13 13° 269° (W) 02:33:06 437.525
NO-84 27 Apr 02:39:47 02:42:16 24° 31° (NNE) 02:44:41 435.350 FM
EO-79 27 Apr 02:39:48 02:42:28 17° 295° (WNW) 02:45:07 145.935-145.965
DUCHIFAT 1 27 Apr 02:41:18 02:44:14 19° 294° (WNW) 02:47:10 145.980
BEESAT 27 Apr 02:41:38 02:45:18 23° 65° (ENE) 02:48:59 436.000
PCSat 27 Apr 02:45:43 02:50:47 43° 112° (ESE) 02:55:54 145.827
ITUPSAT 1 27 Apr 03:21:17 03:25:54 54° 72° (ENE) 03:30:32 437.325
UKube-1 27 Apr 03:22:15 03:23:53 12° 269° (W) 03:25:31 .
